EHI
0 0 0 1 2 2 1 1 0 0 0 1 2 2 2 1 0 0 0 0 0 0 0 0 0 0 0 0 0 0 0 0 0 0 0 0 0 0 0 0 0 0 0
0 0 0 1 2 3 2 1 1 0 0 0 1 2 2 2 1 0 0 0 0 0 0 0 0 0 0 0 0 0 0 0 0 0 0 0 0 0 0 0 0 0 0
0 0 0 1 2 3 3 2 1 0 0 0 0 1 2 3 2 1 1 0 0 0 0 0 0 0 0 0 0 0 0 0 0 0 0 0 0 0 0 0 0 0 0
0 0 0 0 1 2 2 2 1 0 0 0 0 0 1 3 3 3 2 1 0 0 0 0 0 0 0 0 0 0 0 0 0 0 0 0 0 0 0 0 0 0 0
0 0 0 0 0 1 1 1 0 0 0 0 0 0 1 2 3 3 3 2 1 0 0 0 0 0 0 0 0 0 0 0 0 0 0 0 0 0 0 0 0 0 0
0 0 0 0 0 0 0 0 0 0 0 0 0 0 0 1 2 3 3 3 2 1 1 0 0 0 0 0 0 0 0 0 0 0 0 0 0 0 0 0 0 0 0
0 0 0 0 0 0 0 0 0 0 0 0 0 0 0 0 1 2 3 3 3 3 2 1 0 0 0 0 0 0 0 0 0 0 0 0 0 0 0 0 0 0 0
0 0 0 0 0 0 0 0 0 0 0 0 0 0 0 0 0 1 2 3 3 3 3 2 1 0 0 0 0 0 0 0 0 0 0 0 0 0 0 0 0 0 0
0 0 0 0 0 0 0 0 0 0 0 0 0 0 0 0 0 0 1 2 2 2 2 2 1 0 0 0 0 0 0 0 0 0 0 0 0 0 0 0 0 0 0
0 0 0 0 0 0 0 0 0 0 0 0 0 0 0 0 0 0 0 1 1 1 1 1 0 0 0 0 0 0 0 0 0 0 0 0 0 0 0 0 0 0 0
0 0 0 0 0 0 0 0 0 0 0 0 0 0 0 0 0 0 0 0 0 0 0 0 0 0 0 0 0 0 0 0 0 0 0 0 0 0 0 0 0 0 0
0 0 0 0 0 0 0 0 0 0 0 0 0 0 0 0 0 0 0 0 0 0 0 0 0 0 0 0 0 0 0 0 0 0 0 0 0 0 0 0 0 0 0
0 0 0 0 0 0 0 0 0 0 0 0 0 0 0 0 0 0 0 0 0 0 0 0 0 0 0 0 0 0 0 0 0 0 0 0 0 0 0 0 0 0 0
0 0 0 0 0 0 0 0 0 0 0 0 0 0 0 0 0 0 0 0 0 0 0 0 0 0 0 0 0 0 0 0 0 0 0 0 0 0 0 0 0 0 0
0 0 0 0 0 0 0 0 0 0 0 0 0 0 0 0 0 0 0 0 0 0 0 0 0 0 0 0 0 0 0 0 0 0 0 0 0 0 0 0 0 0 0
0 0 0 0 0 0 0 0 0 0 0 0 0 0 0 0 0 0 0 0 0 0 0 0 0 0 0 0 0 0 0 0 0 0 0 0 0 0 0 0 0 0 0
0 0 0 0 0 0 0 0 0 0 0 0 0 0 0 0 0 0 0 0 0 0 0 0 0 0 0 0 0 0 0 0 0 0 0 0 0 0 0 0 0 0 0
0 0 0 0 0 0 0 0 0 0 0 0 0 0 0 0 0 0 0 0 0 0 0 0 0 0 0 0 0 0 0 0 0 0 0 0 0 0 0 0 0 0 0
0 0 0 0 0 0 0 0 0 0 0 0 0 0 0 0 0 0 0 0 0 0 0 0 0 0 0 0 0 0 0 0 0 0 0 0 0 0 0 0 0 0 0
0 0 0 0 0 0 0 0 0 0 0 0 0 0 0 0 0 0 0 0 0 0 0 0 0 0 0 0 0 0 0 0 0 0 0 0 0 0 0 0 0 0 0
0 0 0 0 0 0 0 0 0 0 0 0 0 0 0 0 0 0 0 0 0 0 0 0 0 0 0 0 0 0 0 0 0 0 0 0 0 0 0 0 0 0 0
0 0 0 0 0 0 0 0 0 0 0 0 0 0 0 0 0 0 0 0 0 0 0 0 0 0 0 0 0 0 0 0 0 0 0 0 0 0 0 0 0 0 0
0 0 0 0 0 0 0 0 0 0 0 0 0 0 0 0 0 0 0 0 0 0 0 0 0 0 0 0 0 0 0 0 0 0 0 0 0 0 0 0 0 0 0
0 0 0 0 0 0 0 0 0 0 0 0 0 0 0 0 0 0 0 0 0 0 0 0 0 0 0 0 0 0 0 0 0 0 0 0 0 0 0 0 0 0 0
0 0 0 0 0 0 0 0 0 0 0 0 0 0 0 0 0 0 0 0 0 0 0 0 0 0 0 0 0 0 0 0 0 0 0 0 0 0 0 0 0 0 0
0 0 0 0 0 0 0 0 0 0 0 0 0 0 0 0 0 0 0 0 0 0 0 0 0 0 0 0 0 0 0 0 0 0 0 0 0 0 0 0 0 0 0
Wind_Speed
8 6 7 7 7 7 7 7 6 5 4 3 2 2 1 1 1 2 3 3 2 2 2 2 2 2 2 2 2 1 1 1 1 1 3 3 3 3 3 2 2 3 4
5 5 6 6 7 8 8 7 7 6 5 3 3 2 2 1 2 2 2 2 2 2 2 3 2 3 2 2 2 1 1 1 0 0 1 3 4 3 3 2 3 3 3
9 8 7 7 7 8 9 8 7 6 5 4 2 2 1 1 0 1 2 2 2 3 3 3 2 2 3 3 3 3 2 2 1 1 2 1 3 4 3 3 3 3 3
8 8 9 8 9 8 7 7 6 6 5 5 4 4 3 2 3 2 2 2 2 3 3 3 3 3 2 3 3 2 2 3 2 1 2 2 2 2 4 3 3 4 4
8 9 9 9 8 7 7 6 6 5 4 4 5 4 2 2 1 1 2 2 2 3 3 3 3 3 3 3 3 3 2 2 3 2 2 2 2 2 3 6 5 4 4
6 7 6 6 6 5 5 5 5 4 4 4 4 4 3 2 1 2 2 2 2 2 3 3 3 3 3 3 4 4 4 3 3 3 2 2 2 3 3 5 7 6 5
6 6 6 6 6 6 5 5 5 4 3 3 3 3 3 3 3 3 3 3 2 2 3 3 3 3 3 4 3 3 4 4 4 4 3 3 4 3 3 5 6 7 6
4 5 6 6 6 6 5 5 5 4 3 3 2 2 2 2 2 3 3 3 3 3 3 3 3 4 4 3 3 3 4 3 4 5 5 4 4 4 4 4 5 7 6
3 4 4 5 5 5 5 5 5 4 3 3 2 1 1 1 2 2 2 2 2 2 3 3 3 3 3 3 3 3 4 3 4 4 4 4 4 4 4 4 4 5 7
3 3 3 3 3 3 3 3 4 4 3 2 2 1 1 1 1 1 2 2 3 2 2 3 3 3 3 3 3 3 3 4 4 4 4 5 4 4 4 4 4 5 6
3 3 3 3 3 3 3 3 2 2 2 1 1 1 1 1 1 1 2 2 2 2 3 3 3 3 3 2 3 3 4 4 4 4 5 6 5 4 4 3 4 4 5
4 4 4 4 4 4 3 3 2 2 1 1 1 1 0 0 0 1 2 1 1 2 3 2 3 3 3 2 3 4 4 4 5 5 5 6 5 5 4 3 4 4 5
4 4 4 4 4 3 3 2 2 1 1 1 1 1 1 0 1 1 1 1 1 2 2 2 2 3 3 3 3 3 4 4 4 4 5 5 4 5 4 4 4 4 5
4 4 4 3 3 3 2 2 2 1 1 1 1 1 0 1 1 1 1 1 1 1 2 2 2 2 3 3 3 3 4 4 4 4 4 5 5 5 5 5 5 4 4
3 3 3 2 3 3 3 3 3 2 2 2 1 1 1 1 1 1 1 1 1 2 2 2 2 2 2 2 3 3 3 3 4 3 4 4 5 7 6 5 4 4 4
3 3 3 3 3 2 3 3 3 2 2 2 1 2 2 1 1 1 1 2 1 2 2 1 2 3 3 4 6 5 3 3 3 4 4 4 5 6 8 9 9 7 6
3 2 2 2 1 2 2 2 2 2 2 2 2 2 2 2 2 2 2 2 2 2 2 2 2 3 3 5 5 6 4 3 3 3 3 4 4 6 4 6 8 8 9
3 2 1 1 1 2 2 2 3 2 3 3 3 2 2 2 2 2 2 2 2 2 2 2 2 2 3 5 6 6 4 2 3 3 3 4 5 5 5 4 4 5 5
3 2 1 1 1 2 2 2 3 3 3 3 3 3 2 2 2 2 3 2 2 2 2 2 2 2 4 5 6 6 2 2 3 3 3 4 4 6 8 5 4 5 5
2 2 2 3 3 2 2 2 2 2 2 2 2 2 2 2 3 3 3 2 2 2 2 3 2 3 3 5 5 5 2 2 3 3 3 5 5 7 7 4 3 4 5
3 3 3 3 2 2 2 3 3 3 3 3 2 2 2 2 3 2 2 2 2 2 2 3 3 3 3 4 5 5 2 2 3 3 3 3 6 6 6 5 3 4 5
2 2 2 2 2 2 2 2 3 4 3 2 2 3 3 3 2 2 2 2 1 2 2 2 3 2 3 4 5 6 5 4 3 3 3 3 6 6 6 5 4 6 6
1 1 1 2 2 2 1 1 3 3 3 2 2 3 3 3 2 2 2 2 1 1 2 2 3 3 3 3 5 6 6 6 3 3 4 5 6 6 5 5 6 5 3
1 1 1 2 2 2 2 2 3 3 2 2 3 3 3 3 3 2 2 1 1 1 2 2 3 3 3 3 3 2 3 4 3 3 4 5 5 4 4 5 4 3 2
1 1 1 2 2 3 3 3 3 2 2 2 3 3 3 3 3 3 2 2 2 2 3 3 2 3 3 4 6 4 3 2 2 3 2 2 2 3 3 2 2 2 2
1 1 1 2 2 3 3 3 3 2 2 2 3 2 2 2 2 2 3 4 4 5 6 5 5 4 5 7 7 6 5 5 4 3 2 2 2 2 2 3 3 2 2
Wind_Direction
212 188 178 168 159 158 159 161 155 160 148 141 148 156 191 213 217 211 205 197 198 199 192 204 205 195 195 207 211 220 270 298 324 350 321 308 293 277 274 274 281 283 281
197 180 171 163 163 167 169 167 166 166 168 169 170 169 176 202 222 218 215 205 198 205 200 203 209 203 196 213 215 198 206 285 23 96 339 320 319 307 284 279 278 281 289
192 185 178 177 170 170 172 172 172 169 166 155 129 92 70 47 342 253 247 232 215 214 210 209 213 213 199 208 221 204 193 220 261 168 174 234 273 306 293 276 275 287 291
188 182 178 178 178 179 172 167 167 164 160 155 157 163 176 204 223 229 240 256 236 224 218 213 214 218 215 216 222 213 215 197 231 249 219 218 230 273 302 300 286 283 278
178 178 179 177 174 169 165 162 158 157 160 164 167 170 191 216 231 235 240 253 252 235 226 219 215 218 224 224 224 224 229 215 215 225 237 250 258 242 262 289 298 294 270
167 167 163 152 150 152 150 150 150 159 160 161 167 171 183 199 214 239 237 249 253 244 237 230 219 224 231 232 227 222 225 232 233 235 229 226 234 244 248 273 290 293 288
151 146 144 143 146 148 149 149 151 156 162 161 171 181 189 198 211 224 228 236 243 248 245 238 229 233 234 236 230 226 228 229 229 230 237 238 241 241 246 264 281 287 290
133 142 152 152 153 154 152 153 157 161 164 165 181 185 188 203 226 230 226 229 233 239 242 239 240 241 236 238 233 230 233 233 230 242 241 248 251 243 241 248 269 288 290
115 129 133 140 149 154 158 159 158 158 163 165 166 177 201 217 230 244 234 237 243 247 243 243 243 250 244 237 234 234 235 238 238 242 248 253 256 251 248 246 241 258 285
86 96 107 117 134 144 142 141 148 154 159 155 170 177 213 229 229 234 251 248 249 250 249 252 249 253 251 237 231 239 240 239 249 247 251 257 264 265 256 251 249 242 256
96 88 81 85 98 94 98 105 118 123 132 149 160 157 214 231 228 246 258 253 255 256 251 256 259 261 260 253 244 247 246 247 256 259 258 262 264 267 265 257 255 255 253
91 85 79 72 72 73 73 75 88 106 131 147 141 147 114 33 263 270 275 272 277 273 261 258 262 266 266 260 259 260 258 250 259 266 266 270 272 272 274 265 259 259 257
86 79 73 70 67 65 64 65 67 76 65 96 116 103 62 36 312 298 303 299 290 293 298 270 259 265 269 268 262 261 268 261 259 263 265 270 271 275 275 274 269 266 271
95 84 72 66 63 58 58 56 42 45 51 68 84 72 339 308 294 301 309 312 305 305 312 297 277 271 275 274 269 272 277 279 274 267 265 268 264 266 270 273 270 269 273
92 89 79 62 51 41 33 37 31 21 29 53 47 354 326 336 340 333 325 323 315 308 304 301 304 300 290 276 282 274 275 280 287 286 278 275 273 273 275 277 275 273 272
109 95 79 64 49 39 28 24 18 5 24 45 18 353 350 351 341 325 327 333 324 315 312 297 299 300 296 307 310 309 296 293 290 293 294 287 285 290 293 293 292 285 275
118 107 100 88 55 27 26 13 3 7 26 25 12 4 349 341 323 320 337 326 311 308 311 311 303 297 301 315 320 321 312 296 293 294 299 303 301 303 294 297 300 299 292
118 111 105 73 31 22 19 15 15 23 29 17 10 6 356 341 330 325 319 309 300 303 302 302 300 301 309 322 327 328 325 310 297 294 291 290 296 294 297 294 298 299 302
118 116 111 99 59 35 27 40 26 23 23 8 359 352 349 339 333 324 311 307 309 308 306 311 305 303 309 323 329 330 329 321 309 304 301 296 291 299 305 304 298 301 303
75 72 58 54 42 14 35 51 25 20 1 337 328 327 331 326 315 304 301 304 305 303 311 316 313 298 297 316 329 330 317 314 312 315 311 309 309 313 314 303 296 299 303
64 60 62 52 28 18 44 38 13 346 320 323 330 335 328 316 304 305 308 312 319 323 319 315 313 307 307 317 324 324 316 300 305 309 312 311 317 323 328 321 303 296 302
54 54 52 29 12 23 42 21 343 320 323 334 340 337 329 322 325 319 311 313 318 327 321 318 319 322 323 327 322 322 318 310 301 296 300 305 319 325 326 324 323 324 323
56 54 60 17 1 4 29 338 309 317 330 339 332 327 328 326 320 311 308 313 318 315 312 315 316 320 323 325 329 329 325 318 307 294 301 313 323 327 329 332 329 328 326
49 38 40 11 343 343 353 324 313 324 335 326 319 320 323 326 331 326 322 311 303 300 301 306 306 308 312 318 322 322 323 319 309 303 313 324 333 332 328 329 332 331 324
4 27 6 328 318 325 331 329 322 329 328 316 313 319 320 317 322 325 320 313 289 283 288 280 279 292 299 304 311 311 309 299 281 296 310 324 329 332 330 328 329 328 326
334 336 325 315 313 320 319 319 317 311 303 309 308 305 308 307 312 319 325 333 325 326 321 307 297 293 293 305 311 312 314 315 302 302 301 301 300 302 310 316 319 317 316